This demonstration page uses our WeatherBlox Daily Observations layout. Learn more.

Left ArrowRight Arrow

40.92945, -100.16068

Hourly Observations for October 6, 2018

Temp ( °F °C ) Dew Point ( °F °C ) Humidity (%) Winds ( mph kmh ) Pressure ( in mb ) Visibility ( mi km ) Precip ( " mm )
12:15 am 00:15 Partly Cloudy 40 4.5 37 2.6 88 88 NW 7 11 30.18 1022 10 16.0934 0 0
12:35 am 00:35 Partly Cloudy 40 4.6 37 3 89 89 NNW 5 7 30.15 1021 10 16.0934 0 0
12:55 am 00:55 Mostly Cloudy 41 4.8 38 3.1 89 89 NNW 6 9 30.12 1020 10 16.0934 0 0
1:15 am 01:15 Partly Cloudy 42 5.4 38 3.3 86 86 N 5 7 30.12 1020 10 16.0934 0 0
1:35 am 01:35 Partly Cloudy 41 5.2 38 3.4 88 88 N 7 11 30.12 1020 10 16.0934 0 0
1:55 am 01:55 Mostly Cloudy 42 5.5 38 3.3 86 86 N 8 13 30.12 1020 10 16.0934 0 0
2:15 am 02:15 Cloudy 42 5.5 38 3.5 87 87 N 9 15 30.12 1020 10 16.0934 0 0
2:35 am 02:35 Mostly Cloudy 42 5.5 38 3.3 86 86 N 7 11 30.12 1020 10 16.0934 0 0
2:55 am 02:55 Cloudy 42 5.8 38 3.5 85 85 N 5 7 30.12 1020 10 16.0934 0 0
3:15 am 03:15 Cloudy 43 6 38 3.6 85 85 N 8 13 30.15 1021 10 16.0934 0 0
3:35 am 03:35 Mostly Cloudy 42 5.6 38 3.2 85 85 N 6 9 30.15 1021 10 16.0934 0 0
3:55 am 03:55 Mostly Cloudy 43 6 38 3.3 83 83 N 8 13 30.15 1021 10 16.0934 0 0
4:15 am 04:15 Cloudy 43 6.1 38 3.3 82 82 NNE 3 6 30.18 1022 10 16.0934 0 0
4:35 am 04:35 Cloudy 43 6.1 38 3.5 84 84 Calm 30.18 1022 10 16.0934 0 0
4:55 am 04:55 Cloudy 43 6.1 38 3.5 84 84 N 6 9 30.18 1022 10 16.0934 0 0
5:15 am 05:15 Cloudy 43 6.1 38 3.1 81 81 NNW 7 11 30.18 1022 10 16.0934 0 0
5:35 am 05:35 Cloudy 43 6 37 2.9 81 81 N 9 15 30.18 1022 10 16.0934 0 0
5:55 am 05:55 Cloudy 43 5.9 37 2.5 79 79 N 8 13 30.18 1022 10 16.0934 0 0
6:15 am 06:15 Cloudy 42 5.7 37 2.7 81 81 NNW 6 9 30.15 1021 10 16.0934 0 0
6:35 am 06:35 Cloudy 42 5.8 37 2.7 81 81 N 6 9 30.18 1022 10 16.0934 0 0
6:55 am 06:55 Cloudy 42 5.6 36 2.3 80 80 N 6 9 30.18 1022 10 16.0934 0 0
7:15 am 07:15 Cloudy 41 5.2 36 2.1 81 81 N 7 11 30.18 1022 10 16.0934 0 0
7:35 am 07:35 Partly Cloudy 40 4.5 36 2 84 84 NNW 7 11 30.21 1023 10 16.0934 0 0
7:55 am 07:55 Sunny 39 3.9 35 1.7 86 86 N 6 9 30.21 1023 10 16.0934 0 0
8:15 am 08:15 Sunny 39 4.1 36 2 86 86 NNW 3 6 30.21 1023 10 16.0934 0 0
8:35 am 08:35 Sunny 40 4.5 36 2.4 86 86 NW 7 11 30.21 1023 10 16.0934 0 0
8:55 am 08:55 Sunny 42 5.5 37 2.6 82 82 N 8 13 30.18 1022 10 16.0934 0 0
9:15 am 09:15 Partly Cloudy 42 5.4 36 2.1 80 80 N 8 13 30.21 1023 10 16.0934 0 0
9:35 am 09:35 Mostly Cloudy 44 6.6 37 2.6 76 76 NNE 12 19 30.21 1023 10 16.0934 0 0
9:55 am 09:55 Mostly Cloudy 45 7.1 36 2.4 72 72 NNE 9 15 30.21 1023 10 16.0934 0 0
10:15 am 10:15 Partly Cloudy 46 7.8 36 2.2 68 68 NNE 12 19 30.21 1023 10 16.0934 0 0
10:35 am 10:35 Sunny 47 8.2 35 1.9 65 65 NNE 13 20 30.21 1023 10 16.0934 0 0
10:55 am 10:55 Sunny 48 8.7 35 1.6 61 61 N 10 17 30.18 1022 10 16.0934 0 0
11:15 am 11:15 Mostly Cloudy 49 9.4 36 2.2 61 61 NNE 9 15 30.18 1022 10 16.0934 0 0
11:35 am 11:35 Mostly Cloudy 49 9.3 35 1.7 59 59 N 13 20 30.18 1022 10 16.0934 0 0
11:55 am 11:55 Partly Cloudy 49 9.4 35 1.8 59 59 NNE 10 17 30.18 1022 10 16.0934 0 0
12:15 pm 12:15 Sunny 51 10.3 35 1.9 56 56 ENE 8 13 30.18 1022 10 16.0934 0 0
12:35 pm 12:35 Sunny 51 10.8 35 1.7 54 54 NNE 7 11 30.15 1021 10 16.0934 0 0
12:55 pm 12:55 Sunny 53 11.4 35 1.8 52 52 N 8 13 30.12 1020 10 16.0934 0 0
1:15 pm 13:15 Sunny 53 11.5 35 1.5 51 51 NNE 8 13 30.12 1020 10 16.0934 0 0
1:35 pm 13:35 Sunny 54 12.2 34 1.2 47 47 NE 8 13 30.12 1020 10 16.0934 0 0
1:55 pm 13:55 Sunny 54 12.4 34 1.1 46 46 ENE 9 15 30.09 1019 10 16.0934 0 0
2:15 pm 14:15 Sunny 55 12.8 34 1.1 45 45 E 9 15 30.09 1019 10 16.0934 0 0
2:35 pm 14:35 Sunny 56 13.1 34 0.9 44 44 NNE 5 7 30.09 1019 10 16.0934 0 0
2:55 pm 14:55 Sunny 55 13 33 0.6 43 43 NE 8 13 30.06 1018 10 16.0934 0 0
3:15 pm 15:15 Sunny 56 13.6 34 1 43 43 ENE 8 13 30.06 1018 10 16.0934 0 0
3:35 pm 15:35 Sunny 57 14 34 1.1 42 42 NE 8 13 30.03 1017 10 16.0934 0 0
3:55 pm 15:55 Sunny 58 14.2 33 0.7 40 40 Calm 30.03 1017 10 16.0934 0 0
4:15 pm 16:15 Sunny 58 14.5 35 1.4 41 41 ENE 9 15 30 1016 10 16.0934 0 0
4:35 pm 16:35 Sunny 58 14.6 34 1.3 41 41 ENE 9 15 30 1016 10 16.0934 0 0
4:55 pm 16:55 Sunny 58 14.5 34 0.9 40 40 ENE 8 13 30 1016 10 16.0934 0 0
5:15 pm 17:15 Sunny 58 14.4 35 1.7 42 42 E 10 17 30 1016 10 16.0934 0 0
5:35 pm 17:35 Sunny 58 14.2 36 2.2 45 45 ENE 14 22 30 1016 10 16.0934 0 0
5:55 pm 17:55 Sunny 57 13.9 36 2.1 45 45 ENE 10 17 30 1016 10 16.0934 0 0
6:15 pm 18:15 Mostly Cloudy 56 13.2 36 2.4 48 48 E 12 19 30.03 1017 10 16.0934 0 0
6:35 pm 18:35 Partly Cloudy 55 12.5 36 2.4 50 50 E 12 19 30.03 1017 10 16.0934 0 0
6:55 pm 18:55 Sunny 53 11.6 36 2.3 53 53 E 9 15 30.03 1017 10 16.0934 0 0
7:15 pm 19:15 Clear 52 10.9 37 2.6 57 57 E 7 11 30.03 1017 10 16.0934 0 0
7:35 pm 19:35 Clear 50 10.1 37 2.7 60 60 E 7 11 30.06 1018 10 16.0934 0 0
7:55 pm 19:55 Partly Cloudy 47 8.6 37 3 68 68 E 5 7 30.09 1019 10 16.0934 0 0
8:15 pm 20:15 Mostly Cloudy 49 9.2 38 3.3 67 67 E 8 13 30.09 1019 10 16.0934 0 0
8:35 pm 20:35 Mostly Cloudy 48 8.8 37 2.8 66 66 E 8 13 30.09 1019 10 16.0934 0 0
8:55 pm 20:55 Mostly Cloudy 48 8.8 37 2.6 65 65 E 9 15 30.09 1019 10 16.0934 0 0
9:15 pm 21:15 Partly Cloudy 46 8 37 2.6 69 69 E 8 13 30.09 1019 10 16.0934 0 0
9:35 pm 21:35 Mostly Cloudy 46 7.9 37 2.8 70 70 E 7 11 30.09 1019 10 16.0934 0 0
9:55 pm 21:55 Cloudy 47 8.6 37 3 68 68 E 8 13 30.09 1019 10 16.0934 0 0
10:15 pm 22:15 Cloudy 49 9.3 37 2.9 65 65 E 8 13 30.09 1019 10 16.0934 0 0
10:35 pm 22:35 Cloudy 49 9.5 37 3 64 64 ENE 8 13 30.09 1019 10 16.0934 0 0
10:55 pm 22:55 Cloudy 49 9.5 37 2.9 64 64 E 10 17 30.09 1019 10 16.0934 0 0
11:15 pm 23:15 Cloudy 49 9.5 37 3 64 64 E 7 11 30.09 1019 10 16.0934 0 0
11:35 pm 23:35 Cloudy 49 9.5 37 2.9 64 64 E 8 13 30.09 1019 10 16.0934 0 0
11:55 pm 23:55 Cloudy 49 9.5 37 2.8 63 63 E 6 9 30.12 1020 10 16.0934 0 0

Powered by AerisWeather